| time (UTC) | temp C | wind direction | speed KPH | gust KPH | rain 1hr cm | rain 24hr cm | rain mn cm | humidity % | barometer mb |
| 20260505140117 | 19 | 218 | 6.4 | 14.5 | 0.00 | 0.00 | 0.00 | 69 | 1017.4 |
| 20260505124604 | 16 | 246 | 3.2 | 8.0 | 0.00 | 0.00 | 0.00 | 76 | 1017.7 |
| 20260505123058 | 16 | 239 | 3.2 | 11.3 | 0.00 | 0.00 | 0.00 | 78 | 1017.5 |
| 20260505121600 | 15 | 270 | 1.6 | 9.7 | 0.00 | 0.00 | 0.00 | 80 | 1017.5 |
| 20260505120058 | 13 | 222 | 3.2 | 6.4 | 0.00 | 0.00 | 0.00 | 82 | 1017.6 |
| 20260505114553 | 13 | 248 | 1.6 | 11.3 | 0.00 | 0.00 | 0.00 | 84 | 1017.3 |
| 20260505113056 | 12 | 0 | 0.0 | 8.0 | 0.00 | 0.00 | 0.00 | 85 | 1017.2 |
| 20260505111555 | 12 | 232 | 0.0 | 4.8 | 0.00 | 0.00 | 0.00 | 86 | 1016.9 |
| 20260505110106 | 12 | 232 | 0.0 | 3.2 | 0.00 | 0.00 | 0.00 | 86 | 1016.8 |
| 20260505101554 | 11 | 0 | 0.0 | 0.0 | 0.00 | 0.00 | 0.00 | 87 | 1016.2 |
| 20260505100057 | 11 | 0 | 0.0 | 0.0 | 0.00 | 0.00 | 0.00 | 86 | 1016.3 |
| 20260505094553 | 11 | 0 | 0.0 | 0.0 | 0.00 | 0.00 | 0.00 | 86 | 1016.2 |
| 20260505093057 | 12 | 0 | 0.0 | 0.0 | 0.00 | 0.00 | 0.00 | 84 | 1016.3 |
| 20260505091609 | 12 | 0 | 0.0 | 0.0 | 0.00 | 0.00 | 0.00 | 83 | 1016.2 |
| 20260505090058 | 12 | 0 | 0.0 | 0.0 | 0.00 | 0.00 | 0.00 | 81 | 1016.0 |
| 20260505084554 | 12 | 0 | 0.0 | 0.0 | 0.00 | 0.00 | 0.00 | 80 | 1015.8 |
| 20260505083056 | 13 | 0 | 0.0 | 0.0 | 0.00 | 0.00 | 0.00 | 79 | 1015.6 |
| 20260505081556 | 13 | 0 | 0.0 | 4.8 | 0.00 | 0.00 | 0.00 | 79 | 1015.7 |
| 20260505080103 | 13 | 0 | 0.0 | 1.6 | 0.00 | 0.00 | 0.00 | 78 | 1015.6 |
| 20260505074556 | 13 | 0 | 0.0 | 3.2 | 0.00 | 0.00 | 0.00 | 77 | 1015.6 |
| 20260505073058 | 13 | 0 | 0.0 | 0.0 | 0.00 | 0.00 | 0.00 | 76 | 1015.7 |
| 20260505071556 | 14 | 0 | 0.0 | 3.2 | 0.00 | 0.00 | 0.00 | 75 | 1015.6 |
| 20260505070055 | 14 | 0 | 0.0 | 3.2 | 0.00 | 0.00 | 0.00 | 74 | 1015.4 |
| 20260505064555 | 15 | 0 | 1.6 | 3.2 | 0.00 | 0.00 | 0.00 | 74 | 1015.5 |
| 20260505063112 | 15 | 235 | 0.0 | 4.8 | 0.00 | 0.00 | 0.00 | 72 | 1015.4 |
| 20260505061556 | 15 | 0 | 0.0 | 4.8 | 0.00 | 0.00 | 0.00 | 72 | 1015.4 |
| 20260505060058 | 15 | 0 | 0.0 | 1.6 | 0.00 | 0.00 | 0.00 | 72 | 1015.5 |
| 20260505054609 | 15 | 244 | 1.6 | 6.4 | 0.00 | 0.00 | 0.00 | 72 | 1015.5 |
| 20260505053101 | 15 | 261 | 1.6 | 4.8 | 0.00 | 0.00 | 0.00 | 71 | 1015.6 |
| 20260505051558 | 16 | 0 | 0.0 | 4.8 | 0.00 | 0.00 | 0.00 | 71 | 1015.9 |
| 20260505050111 | 16 | 228 | 1.6 | 8.0 | 0.00 | 0.00 | 0.00 | 70 | 1015.7 |
| 20260505041606 | 16 | 237 | 1.6 | 8.0 | 0.00 | 0.00 | 0.00 | 68 | 1015.7 |
| 20260505040101 | 17 | 232 | 1.6 | 12.9 | 0.00 | 0.00 | 0.00 | 67 | 1015.7 |
| 20260505034600 | 17 | 223 | 4.8 | 12.9 | 0.00 | 0.00 | 0.00 | 66 | 1015.7 |
| 20260505033109 | 17 | 208 | 6.4 | 12.9 | 0.00 | 0.00 | 0.00 | 65 | 1015.6 |
| 20260505031606 | 17 | 223 | 3.2 | 16.1 | 0.00 | 0.00 | 0.00 | 65 | 1015.7 |
| 20260505030059 | 18 | 217 | 4.8 | 12.9 | 0.00 | 0.00 | 0.00 | 64 | 1015.6 |
| 20260505024606 | 18 | 208 | 3.2 | 16.1 | 0.00 | 0.00 | 0.00 | 63 | 1015.6 |
| 20260505023100 | 18 | 219 | 3.2 | 16.1 | 0.00 | 0.00 | 0.00 | 63 | 1015.6 |
| 20260505021608 | 18 | 237 | 4.8 | 16.1 | 0.00 | 0.00 | 0.00 | 62 | 1015.5 |
| 20260505020057 | 19 | 240 | 1.6 | 14.5 | 0.00 | 0.00 | 0.00 | 62 | 1015.4 |
| 20260505014608 | 20 | 186 | 4.8 | 20.9 | 0.00 | 0.00 | 0.00 | 61 | 1015.3 |
| 20260505013058 | 20 | 246 | 1.6 | 20.9 | 0.00 | 0.00 | 0.00 | 60 | 1015.0 |
| 20260505011606 | 20 | 196 | 3.2 | 12.9 | 0.00 | 0.00 | 0.00 | 57 | 1014.8 |
| 20260505010057 | 21 | 235 | 3.2 | 11.3 | 0.00 | 0.00 | 0.00 | 52 | 1014.6 |
| 20260505004555 | 21 | 249 | 1.6 | 4.8 | 0.00 | 0.00 | 0.00 | 47 | 1014.3 |
| 20260505003053 | 21 | 0 | 1.6 | 4.8 | 0.00 | 0.00 | 0.00 | 45 | 1014.1 |
| 20260505001557 | 22 | 0 | 0.0 | 6.4 | 0.00 | 0.00 | 0.00 | 43 | 1014.1 |
| 20260505000115 | 22 | 0 | 1.6 | 4.8 | 0.00 | 0.00 | 0.00 | 42 | 1013.9 |
| 20260504234558 | 23 | 230 | 3.2 | 8.0 | 0.00 | 0.00 | 0.00 | 41 | 1013.8 |
| 20260504233109 | 23 | 213 | 4.8 | 14.5 | 0.00 | 0.00 | 0.00 | 39 | 1013.5 |
| 20260504231607 | 24 | 215 | 3.2 | 12.9 | 0.00 | 0.00 | 0.00 | 39 | 1013.3 |
| 20260504230059 | 24 | 226 | 3.2 | 11.3 | 0.00 | 0.00 | 0.00 | 37 | 1013.3 |
| 20260504224604 | 25 | 204 | 3.2 | 16.1 | 0.00 | 0.00 | 0.00 | 37 | 1013.3 |
| 20260504223127 | 25 | 234 | 1.6 | 12.9 | 0.00 | 0.00 | 0.00 | 36 | 1013.3 |
| 20260504221556 | 25 | 216 | 6.4 | 14.5 | 0.00 | 0.00 | 0.00 | 35 | 1013.4 |
| 20260504220057 | 26 | 221 | 8.0 | 17.7 | 0.00 | 0.00 | 0.00 | 35 | 1013.3 |
| 20260504214555 | 26 | 227 | 1.6 | 16.1 | 0.00 | 0.00 | 0.00 | 33 | 1013.2 |
| 20260504213102 | 27 | 211 | 3.2 | 9.7 | 0.00 | 0.00 | 0.00 | 33 | 1013.2 |
| 20260504211553 | 26 | 220 | 4.8 | 12.9 | 0.00 | 0.00 | 0.00 | 32 | 1013.3 |
| 20260504210101 | 26 | 212 | 6.4 | 19.3 | 0.00 | 0.00 | 0.00 | 31 | 1013.3 |
| 20260504204557 | 26 | 221 | 3.2 | 12.9 | 0.00 | 0.00 | 0.00 | 32 | 1013.4 |
| 20260504203108 | 26 | 248 | 6.4 | 14.5 | 0.00 | 0.00 | 0.00 | 30 | 1013.6 |
| 20260504201559 | 26 | 248 | 4.8 | 12.9 | 0.00 | 0.00 | 0.00 | 30 | 1013.7 |
| 20260504200111 | 26 | 257 | 4.8 | 14.5 | 0.00 | 0.00 | 0.00 | 30 | 1013.9 |
| 20260504194554 | 26 | 248 | 4.8 | 14.5 | 0.00 | 0.00 | 0.00 | 28 | 1013.9 |
| 20260504193058 | 26 | 220 | 3.2 | 12.9 | 0.00 | 0.00 | 0.00 | 29 | 1014.0 |
| 20260504191558 | 26 | 252 | 6.4 | 16.1 | 0.00 | 0.00 | 0.00 | 29 | 1014.3 |
| 20260504190053 | 26 | 268 | 4.8 | 12.9 | 0.00 | 0.00 | 0.00 | 30 | 1014.7 |
| 20260504184558 | 26 | 257 | 4.8 | 11.3 | 0.00 | 0.00 | 0.00 | 29 | 1014.6 |
| 20260504183053 | 25 | 211 | 3.2 | 12.9 | 0.00 | 0.00 | 0.00 | 34 | 1014.8 |
| 20260504181600 | 25 | 205 | 6.4 | 16.1 | 0.00 | 0.00 | 0.00 | 33 | 1014.9 |
| 20260504180054 | 25 | 260 | 4.8 | 14.5 | 0.00 | 0.00 | 0.00 | 34 | 1014.9 |
| 20260504174604 | 24 | 254 | 6.4 | 22.5 | 0.00 | 0.00 | 0.00 | 34 | 1015.2 |
| 20260504173052 | 24 | 212 | 4.8 | 12.9 | 0.00 | 0.00 | 0.00 | 39 | 1015.7 |
| 20260504171555 | 23 | 291 | 4.8 | 12.9 | 0.00 | 0.00 | 0.00 | 39 | 1015.7 |
| 20260504160104 | 21 | 216 | 4.8 | 14.5 | 0.00 | 0.00 | 0.00 | 48 | 1016.8 |